Location: Piotrkow Trybunalski
(51.4000°N, 19.6830°E)
Time: 14:43:54
(UTC+02:00)

Explorer 7 - Pass Details

Date: 27 January 2023
Orbit: 478 x 656 km, 50.3° (Epoch: 01 April)

Event Time Altitude Azimuth Distance (km) Brightness Sun altitude
Rises 20:36:09 0° 282° (WNW) 2,962 11.4 -39.1°
Reaches altitude 10° 20:39:09 10° 263° (W) 2,066 10.3 -39.6°
Enters shadow 20:39:12 10° 262° (W) 2,051 10.3 -39.6°
